Wind_Speed
13 12 12 13 13 13 14 13 13 14 14 13 13 13 14 14 14 14 13 13 13 13 13 13 13 13 13 14 15 15 16 16 17 17 17 17 17 18 18 18 18 18 18
12 12 12 12 13 14 14 14 14 14 14 14 14 14 14 15 15 15 14 14 14 14 14 14 14 14 13 14 15 15 15 15 16 16 17 16 16 17 18 18 18 17 17
12 12 13 13 14 15 15 15 15 15 15 15 15 15 15 15 14 15 14 14 15 15 15 15 15 15 14 15 15 15 15 15 16 16 17 17 17 17 17 17 17 16 16
12 12 13 14 14 15 15 15 16 16 16 16 16 15 15 14 14 14 15 15 15 15 15 15 16 15 15 15 16 16 16 16 16 16 17 17 17 17 17 16 16 16 16
12 13 13 13 14 14 15 15 15 15 15 15 15 15 14 14 14 14 15 15 15 15 16 16 16 16 16 16 16 16 16 17 17 17 16 17 17 17 16 16 16 16 16
12 13 13 12 13 13 14 14 14 15 15 15 15 15 15 15 15 16 16 16 17 17 17 17 16 16 17 16 16 16 17 16 17 17 17 17 18 18 17 16 16 16 16
13 13 13 13 13 13 14 14 15 15 14 15 15 16 16 16 16 17 17 17 17 18 19 18 18 17 17 17 17 17 17 18 17 18 18 17 18 18 18 18 17 17 16
13 13 13 13 13 14 14 15 15 15 15 15 16 16 16 16 17 18 18 18 18 18 19 19 19 19 19 19 19 19 19 19 18 19 18 18 18 18 19 18 18 17 17
13 13 13 13 14 14 14 15 15 15 15 16 16 17 17 17 18 18 18 18 18 19 20 20 20 20 20 20 20 20 20 20 20 20 20 20 19 19 19 19 18 18 18
14 14 14 14 15 15 15 15 15 16 16 17 17 18 18 18 18 19 19 19 19 20 20 21 21 20 20 20 21 21 20 21 21 21 21 21 21 20 19 19 19 19 19
16 15 15 15 15 15 16 16 16 17 17 18 18 18 19 19 20 20 20 20 20 20 20 20 21 21 21 21 21 21 21 21 21 21 21 21 21 20 20 20 20 19 19
17 16 17 17 16 16 17 17 17 18 18 18 19 19 20 21 21 21 21 21 21 21 21 21 21 22 21 21 21 21 21 21 21 21 21 21 21 21 20 20 20 20 19
18 18 18 18 18 18 18 19 19 20 20 20 21 22 22 22 22 22 22 21 21 22 22 22 22 22 21 21 21 21 21 21 21 21 21 21 21 21 21 21 20 20 20
19 19 20 20 19 19 20 21 21 21 21 22 23 23 24 24 24 23 23 22 22 22 22 22 22 22 22 22 22 21 21 21 21 21 21 20 20 20 21 21 21 21 21
20 20 20 20 20 21 21 22 22 23 23 23 24 24 25 25 24 24 24 23 22 22 23 23 23 23 23 22 22 22 22 22 22 22 22 21 21 21 21 22 22 22 22
21 21 21 21 21 22 22 23 23 24 24 25 25 25 25 25 25 25 24 24 24 23 23 24 24 24 24 24 24 23 23 23 23 23 23 23 22 22 22 22 22 22 22
22 22 22 23 23 23 24 24 25 25 25 25 26 26 25 25 26 26 27 27 26 25 24 24 25 25 25 25 24 25 25 24 24 24 24 25 25 24 23 23 23 23 22
24 24 25 25 25 25 25 25 25 25 26 26 26 26 27 27 27 28 28 28 27 27 26 26 26 27 27 26 26 26 26 26 26 25 25 25 26 26 25 24 24 24 23
25 26 26 26 25 26 26 26 26 26 26 26 27 27 27 27 27 27 28 28 29 28 28 28 28 28 27 27 27 26 26 26 26 27 27 27 26 26 26 25 25 25 25
25 26 26 26 27 27 27 27 27 26 26 26 26 27 27 27 27 27 28 28 29 29 29 29 28 27 27 27 27 27 26 26 26 27 28 27 27 27 27 27 27 26 26
26 26 27 27 27 28 28 27 27 27 27 27 27 27 27 27 28 28 29 29 29 29 29 28 27 27 27 27 27 27 27 27 27 28 28 28 29 29 29 29 29 28 27
26 26 27 28 28 28 28 27 27 26 27 27 27 28 28 28 29 30 30 29 29 29 28 28 28 27 27 27 27 27 28 28 28 28 28 28 28 28 29 29 29 29 28
26 26 27 26 27 27 26 27 27 27 28 28 28 28 29 29 29 30 31 30 29 29 28 28 28 28 28 28 28 28 28 29 29 29 29 28 28 28 29 29 29 29 29
25 25 26 25 26 26 26 26 26 27 27 28 29 29 29 29 30 30 30 29 28 27 28 28 28 28 29 29 29 29 29 29 29 30 30 29 29 29 29 29 30 30 29
25 25 25 24 25 26 26 27 27 27 28 29 29 29 29 29 28 28 28 28 27 26 27 28 28 28 28 28 28 28 29 29 28 28 29 29 28 28 29 30 30 30 30
24 25 25 25 25 27 28 28 28 29 28 29 29 28 28 28 28 28 28 27 27 27 26 26 27 27 27 27 27 28 28 28 28 28 28 28 29 29 29 29 30 31 31
Wind_Direction
269 266 266 267 266 267 266 267 270 272 275 277 277 279 282 283 285 286 285 284 283 282 277 274 273 272 272 273 271 266 264 265 263 265 267 268 269 268 269 268 270 272 271
271 269 268 269 269 271 270 269 271 274 276 276 276 278 280 282 282 281 280 282 282 281 279 276 275 277 277 275 271 269 265 265 267 267 268 266 267 269 270 270 272 272 271
274 273 272 271 270 270 271 272 271 272 274 274 274 275 277 280 280 280 278 278 277 277 277 276 276 276 275 275 273 270 268 267 267 267 268 268 269 269 269 269 270 270 271
277 275 272 272 272 271 270 270 271 271 272 272 274 274 276 278 280 280 277 277 277 276 278 278 276 275 273 271 272 271 269 267 267 265 265 267 268 271 269 269 268 268 269
281 281 277 276 275 273 271 270 270 270 270 271 272 274 276 276 278 281 280 279 279 278 278 278 277 274 272 272 273 272 270 268 266 267 269 269 270 271 269 269 267 266 266
282 282 279 278 276 276 275 274 273 271 271 273 274 275 276 277 278 279 279 279 277 276 275 277 277 274 273 274 274 272 271 269 267 267 268 269 271 270 270 268 267 266 267
281 280 279 278 277 276 275 274 274 272 271 273 276 277 279 280 280 280 280 278 277 276 274 275 274 274 275 274 273 273 272 269 268 268 269 270 270 269 271 268 266 265 266
281 279 280 279 277 277 276 274 274 272 273 274 276 278 280 282 283 283 281 279 278 277 275 273 273 273 274 274 273 272 271 270 269 268 267 269 269 268 268 268 265 265 265
281 278 278 277 276 275 275 273 273 274 274 275 276 278 280 282 283 284 283 281 280 277 275 273 273 273 272 272 273 273 271 269 268 268 269 270 269 269 268 267 266 263 263
281 280 276 275 276 276 275 274 273 275 277 277 278 280 280 282 284 283 283 282 279 278 276 274 273 273 271 271 271 272 271 269 269 267 269 270 268 268 266 266 265 263 265
277 278 276 273 273 274 274 273 274 277 278 277 278 280 281 283 284 283 283 281 279 277 276 274 273 272 271 272 272 271 269 268 268 268 266 265 265 264 264 264 264 263 265
277 278 277 275 274 275 277 276 277 277 277 277 278 280 282 284 284 284 284 281 279 277 276 275 274 272 271 272 272 272 271 269 268 269 267 264 265 263 263 263 264 264 264
276 277 277 276 276 275 276 276 277 277 277 277 277 279 281 282 283 283 283 281 280 278 278 277 275 273 272 271 272 272 271 269 267 268 267 267 265 262 261 263 263 263 262
276 277 278 278 277 277 277 277 276 277 278 278 277 278 279 281 282 283 283 281 280 278 277 276 275 273 272 271 271 270 270 268 266 266 266 266 264 262 261 261 261 261 261
277 278 279 279 280 279 278 278 278 277 277 279 280 280 279 281 281 282 282 280 279 277 276 275 274 272 271 270 269 269 268 267 266 265 264 265 265 264 263 262 261 262 261
276 276 277 277 278 280 280 281 281 280 280 281 282 282 282 281 281 282 282 280 279 278 276 275 273 272 271 270 269 268 267 266 265 265 265 264 265 265 265 263 262 262 262
274 275 275 276 279 280 282 282 284 283 283 283 282 282 282 281 281 282 282 281 279 278 277 276 274 271 271 271 269 267 266 265 265 266 267 266 265 265 265 264 262 262 262
273 273 275 278 280 282 282 283 283 283 283 283 283 282 282 282 281 281 281 281 280 279 278 277 275 272 270 269 268 267 265 263 264 265 265 265 265 264 263 262 262 262 262
273 274 276 277 279 280 282 283 283 283 283 283 283 282 282 281 280 280 280 281 280 279 278 277 275 272 271 270 269 267 266 264 264 264 264 264 264 264 263 261 260 260 261
276 277 277 277 278 280 282 282 283 283 282 282 283 283 282 280 281 279 280 281 280 279 278 277 275 272 270 269 269 268 266 265 266 265 264 264 265 264 264 263 261 259 259
278 279 279 279 281 281 282 282 282 282 281 281 282 282 282 281 281 282 281 280 280 280 278 276 273 272 270 268 268 268 267 265 266 267 266 265 265 265 264 263 262 260 259
279 281 281 281 282 283 282 282 282 282 283 283 283 284 283 283 283 283 283 282 280 279 277 275 274 273 271 270 269 269 267 265 265 266 265 266 267 267 265 263 261 259 258
280 281 282 283 283 283 282 283 283 283 284 284 284 285 285 285 284 283 283 284 281 278 277 276 275 274 272 271 271 270 268 266 263 263 264 265 266 266 264 262 261 261 259
281 282 281 283 283 282 282 284 285 285 285 285 285 285 286 286 285 283 283 281 280 278 278 277 276 275 273 273 272 270 267 265 263 261 262 264 264 265 264 262 261 260 260
280 281 282 282 282 284 284 286 285 286 287 287 287 287 286 286 284 283 282 280 278 278 278 278 276 275 274 273 271 270 268 266 263 261 261 263 264 263 264 262 261 260 261
282 283 283 282 283 286 287 288 287 287 288 288 287 287 286 285 284 283 282 280 278 278 277 277 277 277 275 274 272 271 268 266 265 263 262 263 262 262 263 262 261 260 261
Height
5841 5841 5841 5841 5841 5842 5842 5842 5842 5842 5842 5842 5842 5842 5842 5842 5841 5841 5841 5841 5840 5840 5840 5840 5839 5839 5839 5839 5839 5839 5840 5840 5840 5840 5841 5841 5842 5842 5842 5842 5842 5842 5842
5838 5838 5838 5838 5838 5838 5839 5839 5839 5839 5839 5839 5839 5839 5839 5838 5838 5838 5838 5838 5837 5837 5836 5836 5836 5836 5836 5836 5836 5836 5836 5836 5836 5836 5837 5837 5837 5838 5837 5838 5838 5838 5838
5836 5835 5835 5835 5835 5835 5835 5835 5835 5835 5835 5835 5835 5835 5835 5835 5835 5834 5834 5834 5834 5834 5833 5833 5833 5833 5833 5833 5832 5832 5832 5832 5833 5833 5833 5833 5833 5833 5833 5833 5833 5834 5834
5832 5832 5832 5831 5831 5831 5831 5831 5831 5832 5832 5832 5832 5832 5832 5832 5831 5831 5831 5830 5830 5830 5830 5829 5829 5829 5829 5829 5829 5829 5829 5829 5829 5829 5829 5829 5829 5829 5829 5829 5829 5830 5830
5829 5829 5828 5828 5827 5827 5827 5827 5827 5828 5828 5828 5828 5828 5828 5828 5828 5827 5827 5827 5826 5826 5826 5825 5825 5825 5825 5825 5825 5825 5825 5825 5825 5825 5825 5825 5825 5825 5825 5825 5825 5826 5826
5826 5825 5825 5824 5824 5823 5823 5823 5824 5824 5824 5824 5824 5824 5824 5824 5824 5823 5823 5823 5822 5822 5822 5821 5821 5821 5821 5820 5820 5820 5820 5821 5821 5821 5821 5821 5821 5821 5821 5821 5821 5821 5822
5823 5822 5821 5821 5820 5820 5820 5820 5820 5820 5820 5821 5821 5821 5820 5820 5820 5819 5819 5819 5818 5817 5817 5817 5816 5816 5816 5816 5816 5816 5816 5816 5816 5816 5816 5817 5817 5817 5816 5816 5817 5817 5817
5819 5819 5818 5817 5817 5816 5816 5816 5816 5817 5817 5817 5817 5817 5817 5817 5815 5815 5814 5814 5813 5813 5812 5812 5812 5811 5811 5811 5812 5812 5812 5812 5812 5812 5812 5812 5812 5812 5812 5812 5813 5813 5813
5816 5815 5814 5814 5813 5813 5813 5813 5813 5813 5813 5813 5813 5813 5813 5812 5811 5810 5809 5809 5808 5807 5807 5807 5806 5806 5806 5806 5807 5807 5807 5807 5807 5807 5807 5807 5807 5807 5808 5808 5808 5809 5809
5812 5812 5811 5810 5810 5810 5809 5809 5809 5809 5809 5809 5809 5808 5808 5807 5807 5806 5805 5803 5802 5802 5801 5801 5801 5801 5801 5801 5801 5801 5801 5802 5802 5802 5802 5802 5802 5802 5803 5803 5804 5804 5805
5809 5808 5807 5806 5806 5806 5806 5805 5805 5805 5805 5804 5804 5803 5803 5802 5801 5800 5799 5798 5797 5796 5796 5795 5795 5796 5796 5796 5796 5796 5796 5796 5796 5797 5797 5797 5797 5797 5798 5798 5799 5799 5800
5805 5804 5804 5803 5802 5802 5801 5801 5801 5800 5800 5800 5799 5798 5797 5797 5795 5794 5793 5792 5791 5791 5790 5790 5790 5790 5790 5790 5790 5790 5790 5790 5791 5791 5791 5792 5792 5792 5793 5793 5794 5794 5795
5800 5800 5799 5798 5798 5797 5796 5796 5796 5795 5794 5794 5793 5793 5792 5790 5789 5788 5787 5786 5786 5785 5785 5784 5784 5784 5784 5784 5784 5784 5784 5784 5785 5785 5786 5786 5786 5787 5787 5788 5788 5789 5790
5795 5794 5794 5793 5792 5792 5791 5790 5790 5789 5788 5788 5787 5786 5785 5784 5783 5782 5781 5780 5780 5779 5779 5778 5778 5778 5778 5778 5778 5778 5778 5779 5779 5779 5780 5780 5781 5781 5782 5782 5783 5783 5784
5789 5789 5788 5787 5786 5786 5785 5784 5783 5783 5782 5781 5780 5779 5778 5777 5776 5775 5774 5774 5774 5773 5773 5772 5772 5772 5771 5771 5772 5772 5772 5772 5773 5773 5774 5774 5774 5775 5776 5776 5777 5777 5778
5783 5783 5782 5781 5781 5780 5779 5778 5777 5776 5775 5774 5773 5772 5771 5770 5769 5768 5767 5766 5766 5766 5765 5765 5764 5764 5764 5764 5765 5765 5765 5766 5766 5767 5767 5767 5768 5769 5769 5770 5771 5771 5772
5777 5776 5776 5775 5774 5773 5772 5771 5770 5768 5767 5766 5765 5764 5763 5762 5761 5760 5759 5759 5758 5758 5758 5757 5757 5757 5757 5757 5757 5757 5758 5758 5759 5759 5760 5760 5761 5762 5762 5763 5764 5765 5765
5770 5769 5769 5768 5767 5766 5765 5763 5762 5761 5760 5758 5757 5756 5755 5754 5753 5752 5751 5750 5750 5749 5749 5749 5749 5748 5748 5748 5749 5749 5749 5750 5751 5751 5752 5752 5753 5754 5755 5756 5757 5758 5759
5763 5762 5761 5760 5759 5758 5757 5755 5754 5753 5752 5751 5749 5748 5747 5746 5745 5744 5743 5742 5742 5741 5740 5740 5740 5739 5739 5739 5740 5740 5741 5741 5742 5743 5743 5744 5745 5746 5746 5748 5749 5751 5752
5755 5754 5753 5752 5751 5749 5748 5747 5746 5745 5743 5742 5741 5739 5738 5737 5736 5735 5734 5733 5733 5732 5731 5731 5731 5730 5731 5731 5731 5732 5732 5733 5734 5734 5734 5735 5736 5737 5738 5740 5741 5742 5744
5747 5746 5745 5744 5742 5740 5739 5738 5737 5736 5734 5733 5732 5731 5729 5728 5727 5726 5725 5724 5723 5723 5722 5722 5722 5722 5722 5722 5723 5723 5724 5724 5725 5725 5725 5726 5727 5728 5729 5731 5732 5733 5735
5739 5738 5736 5735 5733 5731 5730 5729 5728 5726 5725 5724 5723 5722 5721 5719 5718 5717 5716 5714 5714 5713 5713 5713 5713 5713 5713 5713 5714 5714 5714 5715 5716 5717 5716 5717 5718 5719 5720 5722 5723 5725 5726
5731 5729 5728 5726 5724 5723 5721 5720 5719 5717 5716 5715 5714 5712 5711 5710 5708 5707 5706 5705 5704 5703 5704 5704 5704 5704 5704 5704 5704 5705 5705 5706 5707 5707 5708 5709 5710 5710 5711 5712 5714 5716 5718
5722 5721 5720 5718 5716 5715 5713 5711 5710 5709 5707 5705 5704 5703 5701 5700 5699 5698 5697 5696 5695 5694 5694 5694 5695 5694 5694 5694 5694 5695 5695 5696 5697 5698 5699 5700 5701 5702 5702 5703 5705 5707 5709
5714 5713 5712 5710 5708 5707 5705 5703 5701 5700 5698 5696 5694 5693 5692 5691 5690 5688 5688 5687 5687 5686 5685 5685 5685 5685 5685 5685 5684 5685 5685 5686 5687 5688 5689 5690 5692 5692 5693 5694 5696 5698 5700
5706 5705 5703 5702 5700 5699 5696 5694 5692 5691 5689 5687 5684 5683 5682 5681 5680 5679 5679 5678 5678 5677 5677 5677 5677 5676 5676 5676 5675 5675 5675 5676 5677 5679 5680 5681 5681 5682 5684 5686 5687 5688 5690